Погода в Устиновке

Россия / Саратовская область     51°27′07″N   43°21′59″E
темп.,
°C
ветер,
м/с
пор.,
м/с
влажн.,
%
обл.,
%
осадки,
мм/ч
давл.,
гПа
погр.,
м
25 января, вт
вт2501:00−12в3794100 0.0 1029148
04:00−12в3896100 0.0 1028139
07:00−12в3895100 0.0 1026144
10:00−12вюв3796100 0.0 1026167
13:00−8юв359399 0.1 1024239
16:00−7ююв259579 0.3 1023266
19:00−11ююв229883 0.1 102236
22:00−14ю349992 0.2 102256
26 января, ср
ср2601:00−13ююз369773 0.1 1021107
04:00−16ююз3410089 0.1 102052
07:00−14ю2497100 0.1 101980
10:00−12ююз3696100 0.2 1019139
13:00−10ююз369477 0.0 1018230
16:00−9юз369499 0.1 1018311
19:00−12ююз3598100 0.0 101972
22:00−10ююз3697100 0.1 1019130
27 января, чт
чт2701:00−13ю349977 0.0 101955
04:00−16ююв2210085 0.1 101926
07:00−18ююв22100100 0.0 101924
10:00−12ююв239698 0.1 101967
13:00−6ю3593100 0.1 1019248
16:00−3ююв499595 0.3 1018573
19:00−4ююв51096100 0.3 1017406
22:00−5ююв51095100 0.6 1017351
28 января, пт
пт2801:00−6ююв489686 0.3 1016240
04:00−9ююз359778 0.4 101684
07:00−14ююз2410097 0.1 101641
10:00−14ю369875 0.1 101688
13:00−10ю599583 0.0 1015240
16:00−8ююв5119482 0.0 1013349
19:00−8ююв6139592 0.1 1012333
22:00−6ююв61395100 0.6 1010382
29 января, сб
сб2901:00−3ю61497100 0.8 1008520
04:000юз61198100 1.6 1008664
07:00−1юз5109097 0.1 1008448
10:00−1ююз51196100 0.1 1008497
13:000юз6993100 0.2 1009767
16:000юз5996100 0.4 1008743
19:00−1ююз4998100 0.2 1008388
22:00−1юз499797 0.5 1008311